Index of /20260430/WXO-DD/model_gdps/15km/00/035
Name Last modified Size Description
Parent Directory -
20260430T00Z_MSC_GDPS_AirTemp_AGL-120m_LatLon0.15_PT035H.grib2 2026-04-30 03:55 792K
20260430T00Z_MSC_GDPS_AirTemp_AGL-2m_LatLon0.15_PT035H.grib2 2026-04-30 03:55 1.0M
20260430T00Z_MSC_GDPS_AirTemp_AGL-40m_LatLon0.15_PT035H.grib2 2026-04-30 03:55 811K
20260430T00Z_MSC_GDPS_AirTemp_AGL-80m_LatLon0.15_PT035H.grib2 2026-04-30 03:55 800K
20260430T00Z_MSC_GDPS_Albedo_Sfc_LatLon0.15_PT035H.grib2 2026-04-30 03:55 237K
20260430T00Z_MSC_GDPS_ConvectivePrecip-Accum_Sfc_LatLon0.15_PT035H.grib2 2026-04-30 03:55 2.7M
20260430T00Z_MSC_GDPS_DewPointDepression_AGL-2m_LatLon0.15_PT035H.grib2 2026-04-30 03:55 764K
20260430T00Z_MSC_GDPS_DewPoint_AGL-2m_LatLon0.15_PT035H.grib2 2026-04-30 03:55 610K
20260430T00Z_MSC_GDPS_DownwardLongwaveRadiationFlux-Accum_Sfc_LatLon0.15_PT035H.grib2 2026-04-30 03:55 793K
20260430T00Z_MSC_GDPS_DownwardShortwaveRadiationFlux-Accum_Sfc_LatLon0.15_PT035H.grib2 2026-04-30 03:55 942K
20260430T00Z_MSC_GDPS_FreezingRain-Accum1h_Sfc_LatLon0.15_PT035H.grib2 2026-04-30 03:55 45K
20260430T00Z_MSC_GDPS_FreezingRain-Accum_Sfc_LatLon0.15_PT035H.grib2 2026-04-30 03:55 220K
20260430T00Z_MSC_GDPS_IcePellets-Accum1h_Sfc_LatLon0.15_PT035H.grib2 2026-04-30 03:55 19K
20260430T00Z_MSC_GDPS_IcePellets-Accum_Sfc_LatLon0.15_PT035H.grib2 2026-04-30 03:55 44K
20260430T00Z_MSC_GDPS_LatentHeatNetFlux_Sfc_LatLon0.15_PT035H.grib2 2026-04-30 03:55 550K
20260430T00Z_MSC_GDPS_NetLongwaveRadiationFlux-Accum_Sfc_LatLon0.15_PT035H.grib2 2026-04-30 03:55 1.0M
20260430T00Z_MSC_GDPS_NetShortwaveRadiationFlux-Accum_Sfc_LatLon0.15_PT035H.grib2 2026-04-30 03:55 918K
20260430T00Z_MSC_GDPS_O3MixingRatio_Sfc_LatLon0.15_PT035H.grib2 2026-04-30 04:49 2.3M
20260430T00Z_MSC_GDPS_O3_EAtm_LatLon0.15_PT035H.grib2 2026-04-30 04:49 2.5M
20260430T00Z_MSC_GDPS_PlanetaryBoundaryLayerHeight_Sfc_LatLon0.15_PT035H.grib2 2026-04-30 03:55 2.5M
20260430T00Z_MSC_GDPS_Precip-Accum1h_Sfc_LatLon0.15_PT035H.grib2 2026-04-30 03:55 3.3M
20260430T00Z_MSC_GDPS_Precip-Accum_Sfc_LatLon0.15_PT035H.grib2 2026-04-30 03:55 4.6M
20260430T00Z_MSC_GDPS_PrecipRate_Sfc_LatLon0.15_PT035H.grib2 2026-04-30 03:55 3.2M
20260430T00Z_MSC_GDPS_Pressure_MSL_LatLon0.15_PT035H.grib2 2026-04-30 03:55 835K
20260430T00Z_MSC_GDPS_Pressure_Sfc_LatLon0.15_PT035H.grib2 2026-04-30 03:55 1.1M
20260430T00Z_MSC_GDPS_RadiativeTemp_Sfc_LatLon0.15_PT035H.grib2 2026-04-30 03:55 502K
20260430T00Z_MSC_GDPS_Rain-Accum1h_Sfc_LatLon0.15_PT035H.grib2 2026-04-30 03:55 1.7M
20260430T00Z_MSC_GDPS_Rain-Accum_Sfc_LatLon0.15_PT035H.grib2 2026-04-30 03:55 3.4M
20260430T00Z_MSC_GDPS_RelativeHumidity_AGL-2m_LatLon0.15_PT035H.grib2 2026-04-30 03:55 1.1M
20260430T00Z_MSC_GDPS_Runoff-Accum_Sfc_LatLon0.15_PT035H.grib2 2026-04-30 03:55 106K
20260430T00Z_MSC_GDPS_SensibleHeatNetFlux_Sfc_LatLon0.15_PT035H.grib2 2026-04-30 03:55 654K
20260430T00Z_MSC_GDPS_Snow-Accum1h_Sfc_LatLon0.15_PT035H.grib2 2026-04-30 03:55 1.1M
20260430T00Z_MSC_GDPS_Snow-Accum_Sfc_LatLon0.15_PT035H.grib2 2026-04-30 03:55 1.9M
20260430T00Z_MSC_GDPS_SnowDepth_Sfc_LatLon0.15_PT035H.grib2 2026-04-30 03:55 1.7M
20260430T00Z_MSC_GDPS_SoilTemp_DBS-0to10cm_LatLon0.15_PT035H.grib2 2026-04-30 03:55 504K
20260430T00Z_MSC_GDPS_SoilTemp_Sfc_LatLon0.15_PT035H.grib2 2026-04-30 03:55 590K
20260430T00Z_MSC_GDPS_SoilVolumetricWaterContent_DBS-0to10cm_LatLon0.15_PT035H.grib2 2026-04-30 03:55 585K
20260430T00Z_MSC_GDPS_SoilVolumetricWaterContent_DBS-0to1cm_LatLon0.15_PT035H.grib2 2026-04-30 03:55 649K
20260430T00Z_MSC_GDPS_SpecificHumidity_AGL-120m_LatLon0.15_PT035H.grib2 2026-04-30 03:55 1.1M
20260430T00Z_MSC_GDPS_SpecificHumidity_AGL-2m_LatLon0.15_PT035H.grib2 2026-04-30 03:55 1.2M
20260430T00Z_MSC_GDPS_SpecificHumidity_AGL-40m_LatLon0.15_PT035H.grib2 2026-04-30 03:55 1.1M
20260430T00Z_MSC_GDPS_SpecificHumidity_AGL-80m_LatLon0.15_PT035H.grib2 2026-04-30 03:55 1.1M
20260430T00Z_MSC_GDPS_SpecificHumidity_Sfc_LatLon0.15_PT035H.grib2 2026-04-30 03:55 677K
20260430T00Z_MSC_GDPS_TotalCloudCover_Sfc_LatLon0.15_PT035H.grib2 2026-04-30 03:55 835K
20260430T00Z_MSC_GDPS_UVIndex-ClearSky_Sfc_LatLon0.15_PT035H.grib2 2026-04-30 04:49 1.1M
20260430T00Z_MSC_GDPS_UVIndex_Sfc_LatLon0.15_PT035H.grib2 2026-04-30 04:49 1.5M
20260430T00Z_MSC_GDPS_UpwardLongwaveRadiationFlux_NTAtm_LatLon0.15_PT035H.grib2 2026-04-30 03:55 845K
20260430T00Z_MSC_GDPS_WindDir_AGL-10m_LatLon0.15_PT035H.grib2 2026-04-30 03:55 1.3M
20260430T00Z_MSC_GDPS_WindDir_AGL-120m_LatLon0.15_PT035H.grib2 2026-04-30 03:55 1.4M
20260430T00Z_MSC_GDPS_WindDir_AGL-40m_LatLon0.15_PT035H.grib2 2026-04-30 03:55 1.4M
20260430T00Z_MSC_GDPS_WindDir_AGL-80m_LatLon0.15_PT035H.grib2 2026-04-30 03:55 1.4M
20260430T00Z_MSC_GDPS_WindDir_IsbL-0700_LatLon0.15_PT035H.grib2 2026-04-30 03:55 1.6M
20260430T00Z_MSC_GDPS_WindGust-Max_AGL-10m_LatLon0.15_PT035H.grib2 2026-04-30 03:55 2.2M
20260430T00Z_MSC_GDPS_WindGust-Min_AGL-10m_LatLon0.15_PT035H.grib2 2026-04-30 03:55 2.1M
20260430T00Z_MSC_GDPS_WindGust_AGL-10m_LatLon0.15_PT035H.grib2 2026-04-30 03:55 2.1M
20260430T00Z_MSC_GDPS_WindSpeed_AGL-10m_LatLon0.15_PT035H.grib2 2026-04-30 03:55 1.1M
20260430T00Z_MSC_GDPS_WindSpeed_AGL-120m_LatLon0.15_PT035H.grib2 2026-04-30 03:55 1.2M
20260430T00Z_MSC_GDPS_WindSpeed_AGL-40m_LatLon0.15_PT035H.grib2 2026-04-30 03:55 1.2M
20260430T00Z_MSC_GDPS_WindSpeed_AGL-80m_LatLon0.15_PT035H.grib2 2026-04-30 03:55 1.2M
20260430T00Z_MSC_GDPS_WindSpeed_IsbL-0700_LatLon0.15_PT035H.grib2 2026-04-30 03:55 1.5M
20260430T00Z_MSC_GDPS_WindU_AGL-10m_LatLon0.15_PT035H.grib2 2026-04-30 03:55 1.3M
20260430T00Z_MSC_GDPS_WindU_AGL-120m_LatLon0.15_PT035H.grib2 2026-04-30 03:55 1.0M
20260430T00Z_MSC_GDPS_WindU_AGL-40m_LatLon0.15_PT035H.grib2 2026-04-30 03:55 971K
20260430T00Z_MSC_GDPS_WindU_AGL-80m_LatLon0.15_PT035H.grib2 2026-04-30 03:55 1.0M
20260430T00Z_MSC_GDPS_WindU_IsbL-0700_LatLon0.15_PT035H.grib2 2026-04-30 03:55 1.2M
20260430T00Z_MSC_GDPS_WindV_AGL-10m_LatLon0.15_PT035H.grib2 2026-04-30 03:55 1.3M
20260430T00Z_MSC_GDPS_WindV_AGL-120m_LatLon0.15_PT035H.grib2 2026-04-30 03:55 971K
20260430T00Z_MSC_GDPS_WindV_AGL-40m_LatLon0.15_PT035H.grib2 2026-04-30 03:55 966K
20260430T00Z_MSC_GDPS_WindV_AGL-80m_LatLon0.15_PT035H.grib2 2026-04-30 03:55 971K
20260430T00Z_MSC_GDPS_WindV_IsbL-0700_LatLon0.15_PT035H.grib2 2026-04-30 03:55 1.2M